Regional Weather Roundup
Issued by NWS

Home | Current Version | Previous Version | Graphics & Text | Print | Product List | Glossary On
Versions: 1 2 3 4 5 6 7 8 9 10 11 12 13 14 15 16 17 18 19 20 21 22 23 24 25 26 27
000
ASUS45 KBOI 152210
RWRID

IDAHO REGIONAL WEATHER ROUNDUP
NATIONAL WEATHER SERVICE BOISE ID
400 PM MDT TUE AUG 15 2017

NOTE: "FAIR" INDICATES FEW OR NO CLOUDS BELOW 12000 FEET
WITH NO SIGNIFICANT WEATHER AND/OR OBSTRUCTIONS TO VISIBILITY

IDZ012-014-152300-
SOUTHWEST IDAHO


CITY           SKY/WX    TMP DP  RH WIND       PRES   REMARKS
BOISE          SUNNY     85  39  19 CALM      29.86F
CALDWELL       SUNNY     85  44  23 VRB3      29.85F
MOUNTAIN HOME  SUNNY     85  41  21 CALM      29.86F
$$

IDZ016-017-152300-
SOUTHCENTRAL IDAHO


CITY           SKY/WX    TMP DP  RH WIND       PRES   REMARKS
BURLEY         SUNNY     78  40  25 VRB5      29.92F
JEROME         SUNNY     79  38  22 VRB5      29.94F
TWIN FALLS     SUNNY     80  43  26 NW9       29.94S
$$

IDZ019>023-152300-
SOUTHEAST IDAHO


CITY           SKY/WX    TMP DP  RH WIND       PRES   REMARKS
IDAHO FALLS    MOSUNNY   75  46  35 VRB3      29.97F
POCATELLO      MOSUNNY   78  45  30 N9        29.96F
REXBURG        SUNNY     73  42  32 SW7       29.96F
$$

IDZ006-010-011-018-031-032-152300-
CENTRAL IDAHO MOUNTAINS


CITY           SKY/WX    TMP DP  RH WIND       PRES   REMARKS
MCCALL         SUNNY     77  29  17 NE6       29.96F
HAILEY         MOSUNNY   73  46  38 SE9       29.98F
STANLEY          N/A     76  27  16 VRB7      30.03S
SALMON         SUNNY     79  45  29 N8        29.88F
CHALLIS          N/A    N/A N/A N/A MISG      29.92F
$$

IDZ002-004-006-007-026-152300-
NORTHERN IDAHO


CITY           SKY/WX    TMP DP  RH WIND       PRES   REMARKS
LEWISTON       SUNNY     84  39  20 W6        29.85F
LOWELL           N/A     89  36  15 SE6       29.81F
COEUR D`ALENE  SUNNY     81  34  18 VRB5      29.90F
MULLAN PASS    SUNNY     66  26  22 VRB5      30.05S
$$




USA.gov is the U.S. government's official web portal to all federal, state and local government web resources and services.